Flag for Germany Weather past 2 weeks in Tuttlingen, Baden-Württemberg, Germany

Now
35 °F

Light rain. Passing clouds.


Feels Like: 35 °F
Forecast: 26 / 33 °F
Wind: 2 mph from Northwest

Location: Konstanz

Current Time: Jan 30, 2015 at 12:19:42 AM

Latest Report: Jan 30, 2015 at 12:00 AM


Visibility: 4 mi

Pressure: 28.88 "Hg

Humidity: 97%

Dew point: 34 °F

Location of TuttlingenLocation

Historic Weather in Tuttlingen — Graph

°F

Tuttlingen temperature yesterday

Maximum temperature yesterday: 37 °F (at 3:00 AM)
Minimum temperature yesterday: 32 °F (at 6:00 AM)
Average temperature yesterday: 35 °F

Past Weeks' High & Low Weather Summary

 TemperatureHumidityPressure
High45 °F (Jan 16, 2:00 PM)100% (Jan 27, 8:00 AM)30.47 "Hg (Jan 27, 8:00 AM)
Low30 °F (Jan 25, 8:00 AM)66% (Jan 15, 6:00 PM)28.94 "Hg (Jan 29, 11:00 PM)
Average34 °F87%30.02 "Hg
* Reported Jan 15 5:00 PM — Jan 29 11:00 PM, Tuttlingen, Weather by CustomWeather, © 2014

Note: Actual official high and low records may vary slightly from our data, if they occured in-between our weather recording intervals... More about our weather records

Advertising

Tuttlingen weather history for previous 24 hours

 ConditionsComfort  
Time TempWeatherWind HumidityBarometerVisibility
11:00 PM
Jan 29
35 °FLight rain. Passing clouds.2 mph96%28.94 "Hg4 mi
10:00 PM35 °FLight rain. Passing clouds.2 mph96%28.97 "Hg4 mi
9:00 PM36 °FLight rain. Passing clouds.No wind97%29.03 "Hg6 mi
8:00 PM36 °FLight rain. Passing clouds.1 mph97%29.09 "Hg6 mi
7:00 PM36 °FLight rain. Passing clouds.1 mph94%29.15 "Hg10 mi
6:00 PM36 °FLight rain. Passing clouds.1 mph94%29.18 "Hg12 mi
5:00 PM36 °FLight rain. Overcast.1 mph94%29.23 "Hg6 mi
4:00 PM36 °FLight rain. Overcast.3 mph93%29.29 "Hg6 mi
3:00 PM37 °FLight rain. Overcast.5 mph89%29.32 "Hg12 mi
2:00 PM36 °FLight rain. Low clouds.3 mph91%29.38 "Hg9 mi
1:00 PM36 °FLight rain. Overcast.2 mph88%29.44 "Hg11 mi
12:00 PM35 °FSnow flurries. Overcast.2 mph89%29.50 "Hg22 mi
11:00 AM35 °FOvercast.1 mph81%29.57 "Hg14 mi
10:00 AM34 °FOvercast.3 mph85%29.61 "Hg16 mi
9:00 AM33 °FOvercast.2 mph92%29.63 "Hg16 mi
8:00 AM33 °FLow clouds.3 mph93%29.65 "Hg9 mi
7:00 AM32 °FLight snow. Low clouds.2 mph99%29.66 "Hg3 mi
6:00 AM32 °FSnow. Dense fog.2 mph99%29.66 "Hg1 mi
5:00 AM32 °FSnow. Low clouds.2 mph99%29.67 "Hg1 mi
4:00 AM34 °FSnow. Low clouds.5 mph94%29.66 "Hg2 mi
3:00 AM37 °FLight rain. Overcast.5 mph92%29.63 "Hg11 mi
2:00 AM37 °FLight rain. Overcast.6 mph92%29.63 "Hg3 mi
1:00 AM36 °FLight rain. Overcast.7 mph89%29.65 "Hg4 mi
12:00 AM35 °FFog.5 mph91%29.67 "Hg14 mi
Weather by CustomWeather, © 2014

See weather overviewHow to use our weather pages